| time (UTC) | temp F | wind direction | speed MPH | gust MPH | rain 1hr in | rain 24hr in | rain mn in | humidity % | barometer mb |
| 20260504032510 | 70 | 192 | 2.0 | 11.0 | 0.00 | 0.00 | 0.00 | 47 | 1012.4 |
| 20260504032013 | 70 | 197 | 4.0 | 12.0 | 0.00 | 0.00 | 0.00 | 47 | 1012.4 |
| 20260504031520 | 70 | 196 | 4.0 | 12.0 | 0.00 | 0.00 | 0.00 | 46 | 1012.3 |
| 20260504031012 | 71 | 162 | 3.0 | 9.0 | 0.00 | 0.00 | 0.00 | 46 | 1012.3 |
| 20260504030511 | 71 | 167 | 2.0 | 9.0 | 0.00 | 0.00 | 0.00 | 46 | 1012.3 |
| 20260504030019 | 71 | 162 | 3.0 | 8.0 | 0.00 | 0.00 | 0.00 | 46 | 1012.3 |
| 20260504025508 | 71 | 198 | 2.0 | 9.0 | 0.00 | 0.00 | 0.00 | 45 | 1012.3 |
| 20260504025007 | 71 | 156 | 4.0 | 9.0 | 0.00 | 0.00 | 0.00 | 45 | 1012.2 |
| 20260504024533 | 71 | 189 | 3.0 | 8.0 | 0.00 | 0.00 | 0.00 | 44 | 1012.2 |
| 20260504024006 | 72 | 189 | 4.0 | 8.0 | 0.00 | 0.00 | 0.00 | 44 | 1012.1 |
| 20260504023506 | 72 | 183 | 2.0 | 8.0 | 0.00 | 0.00 | 0.00 | 44 | 1012.1 |
| 20260504023028 | 72 | 153 | 3.0 | 11.0 | 0.00 | 0.00 | 0.00 | 43 | 1012.1 |
| 20260504022506 | 72 | 169 | 6.0 | 11.0 | 0.00 | 0.00 | 0.00 | 43 | 1012.1 |
| 20260504022010 | 73 | 169 | 2.0 | 10.0 | 0.00 | 0.00 | 0.00 | 43 | 1012.0 |
| 20260504021529 | 73 | 156 | 3.0 | 10.0 | 0.00 | 0.00 | 0.00 | 42 | 1012.0 |
| 20260504020504 | 73 | 169 | 4.0 | 13.0 | 0.00 | 0.00 | 0.00 | 42 | 1011.9 |
| 20260504020008 | 73 | 160 | 4.0 | 11.0 | 0.00 | 0.00 | 0.00 | 42 | 1011.8 |
| 20260504015509 | 74 | 148 | 2.0 | 8.0 | 0.00 | 0.00 | 0.00 | 41 | 1011.8 |
| 20260504015010 | 74 | 157 | 3.0 | 7.0 | 0.00 | 0.00 | 0.00 | 41 | 1011.9 |
| 20260504014503 | 74 | 166 | 1.0 | 6.0 | 0.00 | 0.00 | 0.00 | 40 | 1011.9 |
| 20260504014008 | 74 | 189 | 3.0 | 7.0 | 0.00 | 0.00 | 0.00 | 40 | 1011.8 |
| 20260504013505 | 75 | 167 | 2.0 | 7.0 | 0.00 | 0.00 | 0.00 | 39 | 1011.8 |
| 20260504013005 | 75 | 177 | 2.0 | 7.0 | 0.00 | 0.00 | 0.00 | 39 | 1011.7 |
| 20260504012507 | 75 | 216 | 2.0 | 7.0 | 0.00 | 0.00 | 0.00 | 39 | 1011.7 |
| 20260504012011 | 76 | 167 | 3.0 | 7.0 | 0.00 | 0.00 | 0.00 | 38 | 1011.7 |
| 20260504011523 | 76 | 173 | 2.0 | 7.0 | 0.00 | 0.00 | 0.00 | 38 | 1011.7 |
| 20260504011007 | 76 | 148 | 2.0 | 6.0 | 0.00 | 0.00 | 0.00 | 37 | 1011.9 |
| 20260504010503 | 77 | 168 | 3.0 | 7.0 | 0.00 | 0.00 | 0.00 | 37 | 1011.8 |
| 20260504010019 | 77 | 175 | 3.0 | 7.0 | 0.00 | 0.00 | 0.00 | 35 | 1011.8 |
| 20260504005506 | 77 | 148 | 2.0 | 9.0 | 0.00 | 0.00 | 0.00 | 35 | 1011.8 |
| 20260504005004 | 78 | 178 | 3.0 | 9.0 | 0.00 | 0.00 | 0.00 | 34 | 1011.8 |
| 20260504004519 | 78 | 192 | 1.0 | 6.0 | 0.00 | 0.00 | 0.00 | 34 | 1011.8 |
| 20260504004007 | 78 | 202 | 3.0 | 13.0 | 0.00 | 0.00 | 0.00 | 33 | 1011.7 |
| 20260504003511 | 78 | 204 | 3.0 | 13.0 | 0.00 | 0.00 | 0.00 | 32 | 1011.7 |
| 20260504003033 | 79 | 182 | 3.0 | 9.0 | 0.00 | 0.00 | 0.00 | 32 | 1011.8 |
| 20260504002503 | 79 | 211 | 2.0 | 10.0 | 0.00 | 0.00 | 0.00 | 32 | 1011.8 |
| 20260504002007 | 79 | 210 | 5.0 | 12.0 | 0.00 | 0.00 | 0.00 | 31 | 1011.7 |
| 20260504001513 | 80 | 192 | 4.0 | 12.0 | 0.00 | 0.00 | 0.00 | 31 | 1011.8 |
| 20260504001005 | 80 | 210 | 5.0 | 12.0 | 0.00 | 0.00 | 0.00 | 30 | 1011.8 |
| 20260504000507 | 80 | 206 | 5.0 | 13.0 | 0.00 | 0.00 | 0.00 | 30 | 1011.8 |
| 20260504000011 | 81 | 227 | 4.0 | 13.0 | 0.00 | 0.00 | 0.00 | 29 | 1011.8 |
| 20260503235508 | 81 | 179 | 5.0 | 13.0 | 0.00 | 0.00 | 0.00 | 28 | 1011.8 |
| 20260503234007 | 82 | 198 | 6.0 | 15.0 | 0.00 | 0.00 | 0.00 | 29 | 1011.8 |
| 20260503233507 | 82 | 179 | 5.0 | 18.0 | 0.00 | 0.00 | 0.00 | 30 | 1011.8 |
| 20260503233006 | 83 | 225 | 5.0 | 18.0 | 0.00 | 0.00 | 0.00 | 29 | 1011.9 |
| 20260503232510 | 83 | 214 | 8.0 | 16.0 | 0.00 | 0.00 | 0.00 | 29 | 1011.9 |
| 20260503232007 | 83 | 175 | 5.0 | 14.0 | 0.00 | 0.00 | 0.00 | 29 | 1011.9 |
| 20260503231521 | 84 | 209 | 7.0 | 14.0 | 0.00 | 0.00 | 0.00 | 28 | 1011.9 |
| 20260503231007 | 84 | 188 | 5.0 | 17.0 | 0.00 | 0.00 | 0.00 | 30 | 1011.9 |
| 20260503230508 | 84 | 247 | 7.0 | 17.0 | 0.00 | 0.00 | 0.00 | 28 | 1011.9 |
| 20260503230025 | 85 | 206 | 9.0 | 16.0 | 0.00 | 0.00 | 0.00 | 29 | 1011.9 |
| 20260503225506 | 85 | 196 | 6.0 | 16.0 | 0.00 | 0.00 | 0.00 | 28 | 1011.9 |
| 20260503225005 | 85 | 185 | 3.0 | 15.0 | 0.00 | 0.00 | 0.00 | 30 | 1011.9 |
| 20260503224527 | 85 | 198 | 6.0 | 15.0 | 0.00 | 0.00 | 0.00 | 28 | 1011.9 |
| 20260503224008 | 85 | 205 | 8.0 | 15.0 | 0.00 | 0.00 | 0.00 | 29 | 1011.9 |
| 20260503223507 | 85 | 177 | 6.0 | 15.0 | 0.00 | 0.00 | 0.00 | 29 | 1012.0 |
| 20260503223018 | 85 | 219 | 5.0 | 15.0 | 0.00 | 0.00 | 0.00 | 27 | 1012.0 |
| 20260503222506 | 86 | 160 | 7.0 | 16.0 | 0.00 | 0.00 | 0.00 | 26 | 1012.0 |
| 20260503222010 | 86 | 220 | 6.0 | 16.0 | 0.00 | 0.00 | 0.00 | 26 | 1012.0 |
| 20260503221516 | 86 | 170 | 8.0 | 16.0 | 0.00 | 0.00 | 0.00 | 25 | 1012.0 |
| 20260503221011 | 86 | 221 | 4.0 | 20.0 | 0.00 | 0.00 | 0.00 | 26 | 1012.2 |
| 20260503220508 | 85 | 210 | 6.0 | 20.0 | 0.00 | 0.00 | 0.00 | 26 | 1012.1 |
| 20260503220028 | 85 | 210 | 6.0 | 21.0 | 0.00 | 0.00 | 0.00 | 27 | 1012.0 |
| 20260503215509 | 85 | 218 | 5.0 | 21.0 | 0.00 | 0.00 | 0.00 | 26 | 1012.1 |
| 20260503215007 | 86 | 168 | 3.0 | 19.0 | 0.00 | 0.00 | 0.00 | 28 | 1012.2 |
| 20260503214514 | 85 | 252 | 4.0 | 19.0 | 0.00 | 0.00 | 0.00 | 27 | 1012.3 |
| 20260503214008 | 85 | 230 | 7.0 | 16.0 | 0.00 | 0.00 | 0.00 | 27 | 1012.3 |
| 20260503213507 | 85 | 174 | 7.0 | 20.0 | 0.00 | 0.00 | 0.00 | 28 | 1012.3 |
| 20260503213027 | 85 | 235 | 5.0 | 20.0 | 0.00 | 0.00 | 0.00 | 28 | 1012.3 |
| 20260503212510 | 85 | 188 | 7.0 | 19.0 | 0.00 | 0.00 | 0.00 | 27 | 1012.3 |
| 20260503212007 | 85 | 187 | 7.0 | 19.0 | 0.00 | 0.00 | 0.00 | 28 | 1012.5 |
| 20260503211527 | 85 | 135 | 4.0 | 17.0 | 0.00 | 0.00 | 0.00 | 30 | 1012.6 |
| 20260503211008 | 85 | 181 | 7.0 | 15.0 | 0.00 | 0.00 | 0.00 | 29 | 1012.6 |
| 20260503210506 | 85 | 204 | 6.0 | 15.0 | 0.00 | 0.00 | 0.00 | 29 | 1012.8 |
| 20260503210024 | 85 | 212 | 9.0 | 15.0 | 0.00 | 0.00 | 0.00 | 29 | 1012.9 |
| 20260503205507 | 85 | 237 | 6.0 | 16.0 | 0.00 | 0.00 | 0.00 | 32 | 1013.0 |
| 20260503205008 | 85 | 298 | 4.0 | 17.0 | 0.00 | 0.00 | 0.00 | 33 | 1013.1 |
| 20260503204523 | 85 | 162 | 8.0 | 17.0 | 0.00 | 0.00 | 0.00 | 31 | 1013.2 |
| 20260503204010 | 85 | 196 | 3.0 | 13.0 | 0.00 | 0.00 | 0.00 | 33 | 1013.4 |
| 20260503203510 | 84 | 191 | 4.0 | 20.0 | 0.00 | 0.00 | 0.00 | 34 | 1013.5 |
| 20260503203024 | 84 | 169 | 8.0 | 20.0 | 0.00 | 0.00 | 0.00 | 35 | 1013.6 |
| 20260503202508 | 84 | 169 | 7.0 | 18.0 | 0.00 | 0.00 | 0.00 | 36 | 1013.6 |
| 20260503202012 | 84 | 227 | 6.0 | 18.0 | 0.00 | 0.00 | 0.00 | 35 | 1013.7 |
| 20260503201520 | 84 | 194 | 6.0 | 16.0 | 0.00 | 0.00 | 0.00 | 35 | 1013.8 |
| 20260503201007 | 84 | 220 | 7.0 | 16.0 | 0.00 | 0.00 | 0.00 | 34 | 1013.9 |
| 20260503200511 | 84 | 224 | 7.0 | 13.0 | 0.00 | 0.00 | 0.00 | 34 | 1014.0 |
| 20260503200019 | 85 | 140 | 4.0 | 16.0 | 0.00 | 0.00 | 0.00 | 37 | 1014.1 |
| 20260503195512 | 84 | 202 | 3.0 | 16.0 | 0.00 | 0.00 | 0.00 | 35 | 1014.2 |
| 20260503195007 | 84 | 134 | 3.0 | 12.0 | 0.00 | 0.00 | 0.00 | 36 | 1014.2 |
| 20260503194011 | 83 | 199 | 7.0 | 15.0 | 0.00 | 0.00 | 0.00 | 37 | 1014.4 |
| 20260503193512 | 83 | 202 | 5.0 | 15.0 | 0.00 | 0.00 | 0.00 | 36 | 1014.4 |
| 20260503192849 | 82 | 198 | 12.0 | 14.0 | 0.00 | 0.00 | 0.00 | 38 | 1014.7 |
| 20260503192845 | 82 | 168 | 7.0 | 14.0 | 0.00 | 0.00 | 0.00 | 39 | 1014.7 |
| 20260503192842 | 82 | 254 | 4.0 | 12.0 | 0.00 | 0.00 | 0.00 | 44 | 1015.0 |
| 20260503192837 | 81 | 165 | 7.0 | 13.0 | 0.00 | 0.00 | 0.00 | 43 | 1015.0 |
| 20260503192833 | 81 | 215 | 3.0 | 11.0 | 0.00 | 0.00 | 0.00 | 44 | 1015.2 |
| 20260503192829 | 81 | 248 | 5.0 | 13.0 | 0.00 | 0.00 | 0.00 | 43 | 1015.5 |
| 20260503192826 | 81 | 181 | 5.0 | 13.0 | 0.00 | 0.00 | 0.00 | 43 | 1015.5 |
| 20260503192821 | 79 | 154 | 4.0 | 10.0 | 0.00 | 0.00 | 0.00 | 46 | 1015.7 |
| 20260503192817 | 79 | 110 | 5.0 | 10.0 | 0.00 | 0.00 | 0.00 | 45 | 1015.8 |
| 20260503192813 | 79 | 207 | 5.0 | 14.0 | 0.00 | 0.00 | 0.00 | 44 | 1015.9 |
| 20260503192809 | 78 | 270 | 6.0 | 14.0 | 0.00 | 0.00 | 0.00 | 47 | 1016.2 |
| 20260503192804 | 78 | 153 | 4.0 | 10.0 | 0.00 | 0.00 | 0.00 | 47 | 1016.4 |
| 20260503192759 | 77 | 154 | 2.0 | 13.0 | 0.00 | 0.00 | 0.00 | 49 | 1016.4 |
| 20260503192757 | 76 | 167 | 6.0 | 12.0 | 0.00 | 0.00 | 0.00 | 51 | 1016.8 |
| 20260503192750 | 75 | 186 | 4.0 | 11.0 | 0.00 | 0.00 | 0.00 | 52 | 1016.9 |
| 20260503192748 | 75 | 191 | 5.0 | 14.0 | 0.00 | 0.00 | 0.00 | 50 | 1017.0 |
| 20260503192743 | 74 | 225 | 7.0 | 13.0 | 0.00 | 0.00 | 0.00 | 49 | 1017.1 |
| 20260503192738 | 73 | 160 | 7.0 | 15.0 | 0.00 | 0.00 | 0.00 | 50 | 1017.3 |
| 20260503192733 | 73 | 153 | 8.0 | 14.0 | 0.00 | 0.00 | 0.00 | 51 | 1017.4 |
| 20260503192730 | 72 | 196 | 8.0 | 15.0 | 0.00 | 0.00 | 0.00 | 51 | 1017.5 |
| 20260503192724 | 72 | 152 | 6.0 | 15.0 | 0.00 | 0.00 | 0.00 | 51 | 1017.4 |
| 20260503192720 | 71 | 192 | 7.0 | 13.0 | 0.00 | 0.00 | 0.00 | 52 | 1017.4 |
| 20260503192718 | 70 | 156 | 9.0 | 16.0 | 0.00 | 0.00 | 0.00 | 52 | 1017.5 |
| 20260503192710 | 70 | 173 | 7.0 | 14.0 | 0.00 | 0.00 | 0.00 | 52 | 1017.5 |
| 20260503192704 | 69 | 122 | 5.0 | 13.0 | 0.00 | 0.00 | 0.00 | 53 | 1017.7 |
| 20260503192701 | 69 | 171 | 6.0 | 13.0 | 0.00 | 0.00 | 0.00 | 54 | 1017.7 |
| 20260503192659 | 68 | 231 | 6.0 | 14.0 | 0.00 | 0.00 | 0.00 | 54 | 1017.8 |
| 20260503192652 | 68 | 206 | 6.0 | 16.0 | 0.00 | 0.00 | 0.00 | 54 | 1017.9 |
| 20260503192647 | 67 | 182 | 6.0 | 15.0 | 0.00 | 0.00 | 0.00 | 55 | 1017.9 |
| 20260503192642 | 66 | 191 | 4.0 | 14.0 | 0.00 | 0.00 | 0.00 | 55 | 1018.0 |
| 20260503192638 | 65 | 165 | 4.0 | 9.0 | 0.00 | 0.00 | 0.00 | 56 | 1018.0 |
| 20260503192634 | 64 | 163 | 4.0 | 16.0 | 0.00 | 0.00 | 0.00 | 56 | 1018.1 |
| 20260503192631 | 64 | 158 | 6.0 | 13.0 | 0.00 | 0.00 | 0.00 | 56 | 1018.1 |
| 20260503192627 | 63 | 169 | 5.0 | 13.0 | 0.00 | 0.00 | 0.00 | 56 | 1018.1 |
| 20260503192621 | 62 | 148 | 4.0 | 10.0 | 0.00 | 0.00 | 0.00 | 56 | 1018.0 |
| 20260503192616 | 62 | 129 | 4.0 | 9.0 | 0.00 | 0.00 | 0.00 | 56 | 1018.0 |
| 20260503192613 | 61 | 134 | 5.0 | 10.0 | 0.00 | 0.00 | 0.00 | 59 | 1018.1 |
| 20260503192607 | 57 | 143 | 4.0 | 8.0 | 0.00 | 0.00 | 0.00 | 71 | 1018.0 |
| 20260503192603 | 55 | 162 | 2.0 | 7.0 | 0.00 | 0.00 | 0.00 | 71 | 1018.1 |
| 20260503192558 | 54 | 176 | 3.0 | 7.0 | 0.00 | 0.00 | 0.00 | 71 | 1018.0 |
| 20260503192554 | 51 | 177 | 0.0 | 3.0 | 0.00 | 0.00 | 0.00 | 77 | 1018.1 |
| 20260503192549 | 50 | 195 | 1.0 | 2.0 | 0.00 | 0.00 | 0.00 | 79 | 1018.1 |
| 20260503192546 | 49 | 195 | 0.0 | 2.0 | 0.00 | 0.00 | 0.00 | 79 | 1018.2 |
| 20260503192541 | 49 | 195 | 0.0 | 2.0 | 0.00 | 0.00 | 0.00 | 78 | 1018.1 |
| 20260503192536 | 48 | 337 | 0.0 | 0.0 | 0.00 | 0.00 | 0.00 | 77 | 1018.0 |
| 20260503192533 | 49 | 171 | 0.0 | 0.0 | 0.00 | 0.00 | 0.00 | 76 | 1018.1 |
| 20260503192527 | 49 | 171 | 0.0 | 0.0 | 0.00 | 0.00 | 0.00 | 76 | 1018.0 |
| 20260503192523 | 49 | 171 | 0.0 | 0.0 | 0.00 | 0.00 | 0.00 | 75 | 1018.0 |
| 20260503192521 | 49 | 171 | 0.0 | 1.0 | 0.00 | 0.00 | 0.00 | 75 | 1018.0 |
| 20260503192517 | 48 | 20 | 0.0 | 4.0 | 0.00 | 0.00 | 0.00 | 75 | 1017.9 |
| 20260503192513 | 48 | 160 | 1.0 | 4.0 | 0.00 | 0.00 | 0.00 | 76 | 1017.8 |
| 20260503192508 | 47 | 122 | 1.0 | 2.0 | 0.00 | 0.00 | 0.00 | 79 | 1018.1 |
| 20260503192504 | 47 | 103 | 0.0 | 1.0 | 0.00 | 0.00 | 0.00 | 80 | 1018.1 |
| 20260503192459 | 47 | 103 | 0.0 | 0.0 | 0.00 | 0.00 | 0.00 | 80 | 1018.2 |
| 20260503192455 | 47 | 103 | 0.0 | 2.0 | 0.00 | 0.00 | 0.00 | 81 | 1018.5 |
| 20260503192451 | 46 | 103 | 0.0 | 2.0 | 0.00 | 0.00 | 0.00 | 81 | 1018.5 |
| 20260503192447 | 46 | 103 | 0.0 | 2.0 | 0.00 | 0.00 | 0.00 | 80 | 1018.5 |
| 20260503192443 | 46 | 102 | 0.0 | 2.0 | 0.00 | 0.00 | 0.00 | 80 | 1018.5 |
| 20260503192440 | 46 | 102 | 0.0 | 2.0 | 0.00 | 0.00 | 0.00 | 81 | 1018.8 |
| 20260503192435 | 46 | 102 | 0.0 | 2.0 | 0.00 | 0.00 | 0.00 | 80 | 1018.9 |
| 20260503192429 | 46 | 101 | 0.0 | 0.0 | 0.00 | 0.00 | 0.00 | 80 | 1019.1 |
| 20260503192426 | 47 | 101 | 0.0 | 0.0 | 0.00 | 0.00 | 0.00 | 80 | 1019.1 |
| 20260503192423 | 47 | 101 | 0.0 | 0.0 | 0.00 | 0.00 | 0.00 | 79 | 1019.2 |
| 20260503192417 | 47 | 101 | 0.0 | 0.0 | 0.00 | 0.00 | 0.00 | 78 | 1019.3 |
| 20260503192412 | 47 | 101 | 0.0 | 0.0 | 0.00 | 0.00 | 0.00 | 77 | 1019.4 |
| 20260503192409 | 48 | 101 | 0.0 | 0.0 | 0.00 | 0.00 | 0.00 | 76 | 1019.4 |
| 20260503192402 | 48 | 101 | 0.0 | 0.0 | 0.00 | 0.00 | 0.00 | 76 | 1019.4 |
| 20260503192358 | 48 | 101 | 0.0 | 0.0 | 0.00 | 0.00 | 0.00 | 76 | 1019.5 |
| 20260503192355 | 49 | 101 | 0.0 | 0.0 | 0.00 | 0.00 | 0.00 | 75 | 1019.5 |
| 20260503192349 | 49 | 101 | 0.0 | 0.0 | 0.00 | 0.00 | 0.00 | 73 | 1019.6 |
| 20260503192345 | 50 | 101 | 0.0 | 0.0 | 0.00 | 0.00 | 0.00 | 72 | 1019.7 |
| 20260503192340 | 50 | 101 | 0.0 | 0.0 | 0.00 | 0.00 | 0.00 | 71 | 1019.8 |
| 20260503192336 | 51 | 101 | 0.0 | 0.0 | 0.00 | 0.00 | 0.00 | 70 | 1019.9 |
| 20260503192331 | 51 | 101 | 0.0 | 0.0 | 0.00 | 0.00 | 0.00 | 70 | 1019.9 |
| 20260503192328 | 51 | 101 | 0.0 | 2.0 | 0.00 | 0.00 | 0.00 | 68 | 1019.9 |
| 20260503192323 | 51 | 101 | 0.0 | 2.0 | 0.00 | 0.00 | 0.00 | 68 | 1020.1 |
| 20260503192318 | 51 | 95 | 0.0 | 2.0 | 0.00 | 0.00 | 0.00 | 68 | 1020.1 |
| 20260503192315 | 51 | 83 | 0.0 | 2.0 | 0.00 | 0.00 | 0.00 | 68 | 1020.2 |
| 20260503192311 | 51 | 81 | 0.0 | 2.0 | 0.00 | 0.00 | 0.00 | 68 | 1020.1 |
| 20260503192306 | 51 | 79 | 1.0 | 2.0 | 0.00 | 0.00 | 0.00 | 68 | 1020.1 |
| 20260503192258 | 51 | 79 | 0.0 | 2.0 | 0.00 | 0.00 | 0.00 | 66 | 1020.2 |
| 20260503192254 | 52 | 79 | 0.0 | 2.0 | 0.00 | 0.00 | 0.00 | 66 | 1020.2 |
| 20260503192251 | 52 | 79 | 0.0 | 2.0 | 0.00 | 0.00 | 0.00 | 65 | 1020.2 |
| 20260503192247 | 52 | 79 | 0.0 | 2.0 | 0.00 | 0.00 | 0.00 | 64 | 1020.1 |
| 20260503192243 | 52 | 79 | 0.0 | 2.0 | 0.00 | 0.00 | 0.00 | 64 | 1020.1 |
| 20260503192240 | 52 | 78 | 0.0 | 2.0 | 0.00 | 0.00 | 0.00 | 64 | 1020.1 |
| 20260503192236 | 52 | 78 | 0.0 | 2.0 | 0.00 | 0.00 | 0.00 | 64 | 1020.1 |
| 20260503192233 | 53 | 78 | 0.0 | 2.0 | 0.00 | 0.00 | 0.00 | 63 | 1020.0 |
| 20260503192228 | 54 | 78 | 0.0 | 0.0 | 0.00 | 0.00 | 0.00 | 62 | 1020.0 |
| 20260503192223 | 54 | 78 | 0.0 | 2.0 | 0.00 | 0.00 | 0.00 | 60 | 1020.0 |
| 20260503192220 | 54 | 78 | 0.0 | 2.0 | 0.00 | 0.00 | 0.00 | 59 | 1020.0 |
| 20260503192217 | 54 | 78 | 0.0 | 2.0 | 0.00 | 0.00 | 0.00 | 60 | 1020.1 |
| 20260503192212 | 54 | 78 | 0.0 | 2.0 | 0.00 | 0.00 | 0.00 | 60 | 1020.1 |
| 20260503192210 | 55 | 78 | 0.0 | 2.0 | 0.00 | 0.00 | 0.00 | 60 | 1020.1 |
| 20260503192206 | 55 | 78 | 0.0 | 2.0 | 0.00 | 0.00 | 0.00 | 59 | 1020.1 |
| 20260503192201 | 56 | 78 | 0.0 | 2.0 | 0.00 | 0.00 | 0.00 | 57 | 1020.0 |
| 20260503192157 | 56 | 78 | 0.0 | 2.0 | 0.00 | 0.00 | 0.00 | 57 | 1020.2 |
| 20260503192152 | 57 | 78 | 0.0 | 2.0 | 0.00 | 0.00 | 0.00 | 56 | 1020.1 |
| 20260503192147 | 57 | 78 | 0.0 | 2.0 | 0.00 | 0.00 | 0.00 | 55 | 1020.1 |
| 20260503192143 | 57 | 78 | 1.0 | 2.0 | 0.00 | 0.00 | 0.00 | 54 | 1020.1 |
| 20260503192138 | 58 | 78 | 0.0 | 2.0 | 0.00 | 0.00 | 0.00 | 52 | 1019.9 |
| 20260503192132 | 59 | 78 | 1.0 | 2.0 | 0.00 | 0.00 | 0.00 | 51 | 1019.8 |
| 20260503192127 | 59 | 78 | 0.0 | 4.0 | 0.00 | 0.00 | 0.00 | 51 | 1019.8 |
| 20260503192124 | 59 | 78 | 1.0 | 4.0 | 0.00 | 0.00 | 0.00 | 51 | 1019.6 |
| 20260503192118 | 60 | 79 | 0.0 | 2.0 | 0.00 | 0.00 | 0.00 | 50 | 1019.5 |
| 20260503192112 | 60 | 79 | 1.0 | 4.0 | 0.00 | 0.00 | 0.00 | 48 | 1019.5 |
| 20260503192109 | 61 | 79 | 0.0 | 2.0 | 0.00 | 0.00 | 0.00 | 50 | 1019.4 |
| 20260503192105 | 62 | 79 | 0.0 | 2.0 | 0.00 | 0.00 | 0.00 | 50 | 1019.2 |
| 20260503192058 | 62 | 79 | 0.0 | 2.0 | 0.00 | 0.00 | 0.00 | 48 | 1019.2 |
| 20260503192054 | 64 | 79 | 0.0 | 4.0 | 0.00 | 0.00 | 0.00 | 43 | 1019.1 |
| 20260503192050 | 65 | 81 | 1.0 | 4.0 | 0.00 | 0.00 | 0.00 | 42 | 1019.1 |
| 20260503192048 | 65 | 38 | 0.0 | 6.0 | 0.00 | 0.00 | 0.00 | 41 | 1019.0 |
| 20260503192043 | 65 | 38 | 2.0 | 6.0 | 0.00 | 0.00 | 0.00 | 40 | 1019.0 |
| 20260503192039 | 66 | 23 | 3.0 | 6.0 | 0.00 | 0.00 | 0.00 | 39 | 1019.0 |
| 20260503192035 | 66 | 43 | 2.0 | 5.0 | 0.00 | 0.00 | 0.00 | 38 | 1019.0 |
| 20260503192032 | 67 | 42 | 0.0 | 6.0 | 0.00 | 0.00 | 0.00 | 38 | 1018.9 |
| 20260503192029 | 67 | 49 | 1.0 | 6.0 | 0.00 | 0.00 | 0.00 | 37 | 1018.9 |
| 20260503192024 | 68 | 348 | 1.0 | 6.0 | 0.00 | 0.00 | 0.00 | 37 | 1019.0 |
| 20260503192017 | 68 | 36 | 1.0 | 6.0 | 0.00 | 0.00 | 0.00 | 36 | 1019.1 |
| 20260503192014 | 69 | 66 | 4.0 | 9.0 | 0.00 | 0.00 | 0.00 | 36 | 1019.0 |
| 20260503192004 | 70 | 335 | 3.0 | 8.0 | 0.00 | 0.00 | 0.00 | 34 | 1019.1 |
| 20260503192001 | 71 | 308 | 3.0 | 8.0 | 0.00 | 0.00 | 0.00 | 33 | 1019.0 |
| 20260503191957 | 71 | 28 | 3.0 | 6.0 | 0.00 | 0.00 | 0.00 | 34 | 1019.1 |
| 20260503191955 | 72 | 169 | 2.0 | 3.0 | 0.00 | 0.00 | 0.00 | 30 | 1019.1 |
| 20260503191949 | 72 | 181 | 1.0 | 6.0 | 0.00 | 0.00 | 0.00 | 33 | 1019.1 |
| 20260503191943 | 73 | 69 | 3.0 | 6.0 | 0.00 | 0.00 | 0.00 | 32 | 1019.2 |
| 20260503191939 | 73 | 3 | 1.0 | 4.0 | 0.00 | 0.00 | 0.00 | 33 | 1019.3 |
| 20260503191935 | 73 | 243 | 3.0 | 4.0 | 0.00 | 0.00 | 0.00 | 32 | 1019.2 |
| 20260503191930 | 72 | 164 | 2.0 | 5.0 | 0.00 | 0.00 | 0.00 | 31 | 1019.2 |
| 20260503191927 | 72 | 73 | 4.0 | 7.0 | 0.00 | 0.00 | 0.00 | 33 | 1019.3 |
| 20260503191922 | 73 | 335 | 2.0 | 6.0 | 0.00 | 0.00 | 0.00 | 31 | 1019.3 |